Location: Mentone
(34.5413°N, 85.5351°W)
Time: 15:15:36
(UTC-06:00)

ATLAS 5 CENTAUR R/B - Visible Passes

Search period start: 24 January 2017 00:00
Search period end: 03 February 2017 00:00
Orbit: 647 x 1013 km, 63.4° (Epoch: 22 January)

Date Brightness Start Highest point End Pass type
(mag) Time Alt. Az. Time Alt. Az. Time Alt. Az.
24 Jan 4.3 18:28:59 10° NNE 18:29:30 11° NNE 18:29:30 11° NNE visible
24 Jan 4.8 20:10:39 10° NNW 20:11:05 12° NNW 20:11:05 12° NNW visible
25 Jan 4.3 18:10:29 10° NNE 18:11:44 11° NE 18:11:44 11° NE visible
25 Jan 4.3 19:51:44 10° NNW 19:53:19 19° NNW 19:53:19 19° NNW visible
26 Jan 4.2 17:52:29 10° NE 17:52:49 10° NE 17:53:10 10° NE visible
26 Jan 3.7 19:32:49 10° NNW 19:35:42 28° N 19:35:42 28° N visible
27 Jan 3.0 19:13:56 10° NNW 19:18:16 41° NNE 19:18:16 41° NNE visible
27 Jan 5.1 20:59:15 10° WNW 20:59:53 13° WNW 20:59:53 13° WNW visible
28 Jan 2.6 18:55:01 10° NNW 19:00:53 47° NE 19:01:05 47° ENE visible
28 Jan 4.6 20:40:13 10° NW 20:42:44 21° WNW 20:42:44 21° WNW visible
29 Jan 2.7 18:36:08 10° NNW 18:41:55 44° NE 18:44:15 32° E visible
29 Jan 4.0 20:21:11 10° NW 20:25:56 30° WSW 20:25:56 30° WSW visible
30 Jan 2.8 18:17:14 10° NNW 18:22:58 42° NE 18:27:59 15° ESE visible
30 Jan 3.9 20:02:10 10° NW 20:07:37 32° WSW 20:09:43 26° SW visible
31 Jan 2.9 17:58:20 10° NNW 18:04:00 39° NE 18:10:02 10° ESE visible
31 Jan 3.9 19:43:08 10° NW 19:48:41 34° WSW 19:54:30 10° S visible
01 Feb 3.0 17:39:26 10° NNW 17:45:02 37° NE 17:50:59 10° ESE visible
01 Feb 3.8 19:24:07 10° NW 19:29:46 37° WSW 19:35:42 10° S visible
02 Feb 3.8 19:05:07 10° NW 19:10:50 39° WSW 19:16:51 10° S visible
